Location: Hamayl? Da??
(36.7028°N, 30.1716°E)
Time: 06:25:08
(UTC+00:00)

CENTAUR R/B - Pass Details

Date: 04 August 2024
Orbit: 663 x 1521 km, 63.4° (Epoch: 10 September)

Event Time Altitude Azimuth Distance (km) Brightness Sun altitude
Rises 19:40:18 0° 325° (NW) 4,333 7.2 -26.4°
Reaches altitude 10° 19:43:03 10° 322° (NW) 3,450 6.4 -26.7°
Maximum altitude 19:51:41 67° 243° (WSW) 1,601 3.5 -27.8°
Enters shadow 19:54:43 46° 181° (S) 1,956 3.6 -28.1°
